Regional Weather Roundup
Issued by NWS

Home | Current Version | Previous Version | Text Only | Print | Product List | Glossary On
Versions: 1 2 3 4 5 6 7 8 9 10 11 12 13 14 15 16 17 18 19 20 21 22 23 24 25 26 27 28 29 30 31 32 33 34 35 36 37 38 39 40 41 42 43 44 45 46 47 48 49 50
000
ASUS45 KREV 201810
RWRNV
NEVADA REGIONAL WEATHER ROUNDUP
NATIONAL WEATHER SERVICE RENO NV
1100 AM PDT SAT SEP 20 2014

NOTE: "FAIR" INDICATES FEW OR NO CLOUDS BELOW 12,000 FEET WITH NO
SIGNIFICANT WEATHER AND/OR OBSTRUCTIONS TO VISIBILITY.

NVZ001-003-004-201900-
WESTERN NEVADA

CITY           SKY/WX    TMP DP  RH WIND       PRES   REMARKS
RENO           MOSUNNY   76  38  25 W3        30.12F
6HR MIN TEMP:  56; 6HR MAX TEMP:  76;

CARSON CITY    FAIR      77  36  22 E13       30.14S
MINDEN         FAIR      73  37  27 N3        30.15S
SLIDE MTN        N/A     55  34  44 E21         N/A
FALLON         MOSUNNY   77  37  23 VRB3      30.10F
6HR MIN TEMP:  50; 6HR MAX TEMP:  77;

LOVELOCK       MOSUNNY   81  43  26 NE9       30.09F
6HR MIN TEMP:  51; 6HR MAX TEMP:  81;

HAWTHORNE      SUNNY     75  39  27 CALM      30.11F
$$

NVZ002-CAZ072-073-201900-
NORTHERN AND CENTRAL SIERRA

CITY           SKY/WX    TMP DP  RH WIND       PRES   REMARKS
S. LAKE TAHOE  SUNNY     76  33  21 NE12G20   30.19S
6HR MIN TEMP:  42; 6HR MAX TEMP:  76;

SQUAW VLY 8000 NOT AVBL
BLUE CANYON    SUNNY     73  38  27 W3        30.14R
MAMMOTH LAKES  FAIR      70  32  24 E20G25    30.25F
BRIDGEPORT     FAIR      72  32  23 NE13G23   30.21F
$$

NVZ030-031-036-201900-
NORTHERN NEVADA

CITY           SKY/WX    TMP DP  RH WIND       PRES   REMARKS
ELKO           SUNNY     75  42  30 CALM      30.20F
6HR MIN TEMP:  46; 6HR MAX TEMP:  75;

WINNEMUCCA     SUNNY     79  41  25 NE16      30.14S
6HR MIN TEMP:  58; 6HR MAX TEMP:  79;

WENDOVER       SUNNY     79  41  25 NE3       30.19F
$$

NVZ035-037-201900-
CENTRAL NEVADA

CITY           SKY/WX    TMP DP  RH WIND       PRES   REMARKS
ELY            SUNNY     72  40  31 N14       30.25F
6HR MIN TEMP:  42; 6HR MAX TEMP:  73;

EUREKA           N/A     73  43  33 NE5       30.23F
6HR MIN TEMP:  43; 6HR MAX TEMP:  74;

$$

NVZ013-014-201900-
SOUTH CENTRAL NEVADA

CITY           SKY/WX    TMP DP  RH WIND       PRES   REMARKS
TONOPAH        CLOUDY    64  56  75 W3        30.21R THUNDER
6HR MIN TEMP:  55; 6HR MAX TEMP:  67; 6HR PCP:  0.04;

$$

NVZ017-020-022-201900-
SOUTHERN NEVADA

CITY           SKY/WX    TMP DP  RH WIND       PRES   REMARKS
LAS VEGAS      MOSUNNY   91  40  16 CALM      29.91F
6HR MIN TEMP:  77; 6HR MAX TEMP:  91;

N. LAS VEGAS   MOSUNNY   90  36  14 E5        29.94F
6HR MIN TEMP:  75; 6HR MAX TEMP:  90;

NELLIS AFB     SUNNY     89  43  19 CALM      29.93F
6HR MIN TEMP:  73; 6HR MAX TEMP:  90;

HENDERSON      SUNNY     90  42  18 NE6       29.98S
6HR MIN TEMP:  73; 6HR MAX TEMP:  91;

MERCURY        MOSUNNY   86  36  16 CALM      30.02S
6HR MIN TEMP:  64; 6HR MAX TEMP:  88;

$$


USA.gov is the U.S. government's official web portal to all federal, state and local government web resources and services.